Location: Qazi Observatory
(41.6337°N, 88.1517°W)
Time: 13:46:48
(UTC-05:00)

Amateur Radio Satellites - All Passes

Search period start: 28 September 2016 13:16
Search period end: 29 September 2016 13:16
Location: Qazi Observatory, 41.6337°N, 88.1517°W

Satellite Date Start Highest point End Downlink Frequencies (MHz)
Time Altitude Azimuth
50 SAT 28 Sep 13:21:40 13:25:06 39° 288° (WNW) 13:28:31 437.505
AIST 2 28 Sep 13:23:51 13:27:42 35° 244° (WSW) 13:31:31 435.215
TISAT 1 28 Sep 13:29:29 13:32:41 21° 94° (E) 13:35:52 437.305
Oscar 19 28 Sep 13:30:06 13:35:19 90° 139° (SE) 13:40:33 437.125/150
PCSat 28 Sep 13:31:40 13:37:05 65° 58° (ENE) 13:42:27 145.827
JAS-2 28 Sep 13:32:18 13:37:02 21° 273° (W) 13:42:13 435.910
M-CUBED/EXP-1 PRIME 28 Sep 13:32:53 13:36:08 63° 290° (WNW) 13:39:22 437.505
SPROUT 28 Sep 13:46:19 13:50:24 45° 288° (WNW) 13:54:27 437.525
PHONESAT 2.4 28 Sep 13:55:28 13:58:23 60° 189° (S) 14:01:18 2401.200-2431.200
AISAT 28 Sep 13:58:51 14:02:06 21° 294° (WNW) 14:05:20 437.250
UKube-1 28 Sep 14:01:43 14:05:43 38° 290° (WNW) 14:09:41 .
AO-7 28 Sep 14:05:27 14:12:13 29° 55° (NE) 14:18:58 29.400- 29.500
ITUPSAT 1 28 Sep 14:06:43 14:07:35 10° 89° (E) 14:08:28 437.325
SWISSCUBE 28 Sep 14:17:34 14:20:36 16° 92° (E) 14:23:36 437.505
ITAMSAT 1 28 Sep 14:25:01 14:29:48 40° 69° (ENE) 14:34:37 435.822/435.867
Cosmos 2491 28 Sep 14:25:54 14:34:03 45° 87° (E) 14:42:14 435.465 / 435.565
YUBILEINY 28 Sep 14:29:58 14:38:44 86° 83° (E) 14:47:26 435.215
BEESAT 28 Sep 14:30:06 14:33:35 20° 93° (E) 14:37:04 436.000
AUBIESAT-1 28 Sep 14:30:22 14:32:24 15° 298° (WNW) 14:34:26 437.475
DX 1 28 Sep 14:32:43 14:35:16 15° 297° (WNW) 14:37:49 434.975-435.025
Gurwin Techsat 1B 28 Sep 14:32:56 14:38:05 51° 260° (W) 14:43:16 435.225
SO-50 28 Sep 14:45:56 14:50:17 34° 115° (ESE) 14:54:37 436.795
Cosmos 2504 28 Sep 14:58:57 15:06:13 54° 78° (ENE) 15:13:57 435.465 / 435.565
TISAT 1 28 Sep 15:04:40 15:08:22 31° 290° (WNW) 15:12:03 437.305
Oscar 19 28 Sep 15:14:26 15:15:19 10° 272° (W) 15:16:12 437.125/150
PCSat 28 Sep 15:16:25 15:19:53 17° 255° (WSW) 15:23:22 145.827
PHONESAT 2.4 28 Sep 15:31:52 15:34:12 21° 205° (SSW) 15:36:30 2401.200-2431.200
ITUPSAT 1 28 Sep 15:41:10 15:45:59 82° 286° (WNW) 15:50:48 437.325
MOZHAYETS 4 28 Sep 15:50:22 15:54:07 24° 94° (E) 15:57:50
SWISSCUBE 28 Sep 15:54:00 15:58:42 53° 288° (WNW) 16:03:21 437.505
AO-7 28 Sep 15:56:02 16:04:19 70° 255° (WSW) 16:12:39 29.400- 29.500
AIST 1 28 Sep 16:04:46 16:08:47 38° 77° (ENE) 16:12:45
ITAMSAT 1 28 Sep 16:05:10 16:09:22 25° 265° (W) 16:13:37 435.822/435.867
BEESAT 28 Sep 16:07:01 16:11:34 44° 289° (WNW) 16:16:06 436.000
KKS-1 28 Sep 16:10:55 16:14:26 23° 95° (E) 16:17:54 437.445
Cosmos 2491 28 Sep 16:22:44 16:30:53 41° 287° (WNW) 16:39:09 435.465 / 435.565
O/OREOS (USA 219) 28 Sep 16:25:23 16:29:25 29° 59° (ENE) 16:33:25 437.305
SO-50 28 Sep 16:26:26 16:30:46 32° 312° (NW) 16:35:04 436.795
YUBILEINY 28 Sep 16:28:47 16:34:19 19° 282° (WNW) 16:39:49 435.215
HORYU 2 28 Sep 16:29:07 16:32:57 30° 68° (ENE) 16:36:48 437.375
GOMX 1 28 Sep 16:39:56 16:41:52 12° 61° (ENE) 16:43:46 467.674
STARS 28 Sep 16:42:35 16:46:07 24° 95° (E) 16:49:38 437.465
BRITE-PL 28 Sep 16:50:36 16:55:40 34° 69° (ENE) 17:00:38 437.365/2234.400
Cosmos 2504 28 Sep 16:53:02 16:59:11 29° 275° (W) 17:05:40 435.465 / 435.565
CUBESAT XI-V 28 Sep 17:12:05 17:15:47 23° 93° (E) 17:19:27 437.345
NOAA 18 28 Sep 17:17:35 17:21:34 21° 62° (ENE) 17:25:34 137.9125
MOZHAYETS 4 28 Sep 17:27:07 17:31:19 35° 290° (WNW) 17:35:32
CUSAT 1 28 Sep 17:35:09 17:37:20 12° 74° (ENE) 17:39:38 437.405
AIST 1 28 Sep 17:43:16 17:46:02 17° 274° (W) 17:48:47
KKS-1 28 Sep 17:47:04 17:51:02 33° 291° (WNW) 17:54:59 437.445
NOAA 15 28 Sep 17:49:48 17:54:58 57° 72° (ENE) 18:00:12 137.62
AO-7 28 Sep 17:55:33 17:58:29 12° 273° (W) 18:01:27 29.400- 29.500
O/OREOS (USA 219) 28 Sep 18:04:48 18:08:46 29° 257° (WSW) 18:12:41 437.305
HORYU 2 28 Sep 18:05:51 18:09:29 25° 264° (W) 18:13:08 437.375
CUTE-I 28 Sep 18:08:35 18:13:50 68° 73° (ENE) 18:19:09 437.470
Cubesat XI-IV 28 Sep 18:08:41 18:13:57 68° 73° (ENE) 18:19:15 437.490
Cosmos 2499 28 Sep 18:09:47 18:12:44 12° 60° (ENE) 18:15:46 435.465 / 435.565
HO-68 28 Sep 18:10:10 18:14:49 19° 54° (NE) 18:19:28 435.675
GOMX 1 28 Sep 18:13:49 18:19:14 86° 76° (ENE) 18:24:23 467.674
STARS 28 Sep 18:18:37 18:22:28 31° 291° (WNW) 18:26:19 437.465
BRITE-PL 28 Sep 18:28:51 18:34:01 35° 264° (W) 18:39:07 437.365/2234.400
LilacSat-2 28 Sep 18:30:22 18:34:05 67° 258° (WSW) 18:37:52 437.200
DOVE 4 28 Sep 18:31:46 18:36:40 58° 74° (ENE) 18:41:19 437.250
RS-15 28 Sep 18:35:41 18:44:44 28° 101° (E) 18:54:05 29.354- 29.394
CUBESAT XI-V 28 Sep 18:48:56 18:53:16 37° 290° (WNW) 18:57:31 437.345
GONETS M04 28 Sep 18:52:40 19:00:24 33° 69° (ENE) 19:08:01
NOAA 18 28 Sep 18:56:27 19:01:49 56° 259° (W) 19:07:11 137.9125
DANDE 28 Sep 19:10:05 19:14:22 25° 82° (E) 19:19:36 436.750
CUSAT 1 28 Sep 19:11:22 19:17:35 71° 95° (E) 19:25:13 437.405
COMPASS 1 28 Sep 19:12:37 19:14:35 13° 63° (ENE) 19:16:33 437.405
NOAA 15 28 Sep 19:31:29 19:35:06 18° 268° (W) 19:38:44 137.62
CINEMA 3 28 Sep 19:38:05 19:42:33 73° 75° (ENE) 19:46:50 145.822/145.860
CUTE 1.7 + AOD 2 28 Sep 19:40:24 19:44:31 54° 74° (ENE) 19:48:41 437.475
SEEDS 28 Sep 19:40:32 19:44:24 37° 71° (ENE) 19:48:19 437.485
ISS 28 Sep 19:40:38 19:43:24 26° 135° (SE) 19:46:12 145.825
CANX-2 28 Sep 19:41:45 19:45:56 65° 75° (ENE) 19:50:10 2200.000
Oscar 11 28 Sep 19:47:42 19:48:08 10° 61° (ENE) 19:48:34 145.826/435.025
ZACube-1 28 Sep 19:50:51 19:51:43 11° 62° (ENE) 19:52:36 437.345
CUTE-I 28 Sep 19:51:24 19:54:23 15° 270° (W) 19:57:22 437.470
Cubesat XI-IV 28 Sep 19:51:29 19:54:30 15° 270° (W) 19:57:32 437.490
HO-68 28 Sep 19:54:24 20:01:35 90° 64° (ENE) 20:08:48 435.675
GOMX 1 28 Sep 19:55:58 19:57:48 12° 271° (W) 19:59:38 467.674
Cosmos 2499 28 Sep 19:59:40 20:07:14 69° 80° (E) 20:15:23 435.465 / 435.565
AAUSAT CUBESAT 2 28 Sep 20:00:44 20:04:28 33° 71° (ENE) 20:08:15 437.432
STRAND 1 28 Sep 20:11:21 20:16:31 70° 103° (ESE) 20:21:39 437.568
DOVE 4 28 Sep 20:11:38 20:14:37 16° 268° (W) 20:17:31 437.250
AO-85 28 Sep 20:26:31 20:31:11 33° 115° (ESE) 20:35:37 145.980
CUBEBUG 2 28 Sep 20:39:50 20:44:02 88° 256° (WSW) 20:48:12 437.445
FUNcube-1 28 Sep 20:41:09 20:44:53 34° 71° (ENE) 20:48:39 145.935
RS-15 28 Sep 20:44:05 20:55:44 83° 303° (WNW) 21:08:05 29.354- 29.394
COMPASS 1 28 Sep 20:45:31 20:49:37 57° 259° (W) 20:53:47 437.405
GONETS M04 28 Sep 20:49:05 20:57:38 57° 270° (W) 21:06:04
DANDE 28 Sep 20:51:25 20:56:31 48° 288° (WNW) 21:03:13 436.750
CUSAT 1 28 Sep 20:55:15 21:00:29 24° 298° (WNW) 21:06:25 437.405
UWE-3 28 Sep 20:56:01 21:00:11 89° 244° (WSW) 21:04:20 435.000/436.395/437.385
DELFI C3 28 Sep 21:13:05 21:16:39 32° 71° (ENE) 21:20:15 145.870
ISS 28 Sep 21:16:43 21:19:47 38° 332° (NNW) 21:22:53 145.825
SEEDS 28 Sep 21:17:17 21:20:14 18° 267° (W) 21:23:12 437.485
CUTE 1.7 + AOD 2 28 Sep 21:18:44 21:20:41 13° 270° (W) 21:22:40 437.475
Oscar 11 28 Sep 21:19:16 21:23:35 81° 259° (W) 21:27:56 145.826/435.025
CANX-2 28 Sep 21:21:16 21:22:13 11° 271° (W) 21:23:10 2200.000
ZACube-1 28 Sep 21:23:19 21:27:26 70° 259° (W) 21:31:34 437.345
PRISM 28 Sep 21:25:08 21:29:01 38° 99° (E) 21:32:49 437.425
HUMSAT D 28 Sep 21:35:54 21:39:26 29° 69° (ENE) 21:43:01 437.325/437.525
AAUSAT CUBESAT 2 28 Sep 21:36:56 21:40:01 20° 267° (W) 21:43:08 437.432
HO-68 28 Sep 21:46:05 21:50:10 16° 271° (W) 21:54:16 435.675
STRAND 1 28 Sep 21:52:06 21:55:06 16° 299° (WNW) 21:58:06 437.568
Cosmos 2499 28 Sep 21:54:04 21:59:41 23° 277° (W) 22:05:35 435.465 / 435.565
AO-85 28 Sep 22:06:54 22:11:37 35° 310° (NW) 22:16:04 145.980
UNISAT 6 28 Sep 22:09:23 22:12:16 17° 93° (E) 22:15:10 437.425
FUNcube-1 28 Sep 22:18:19 22:21:15 19° 267° (W) 22:24:11 145.935
VELOX 1 28 Sep 22:30:08 22:30:51 10° 60° (ENE) 22:31:35 145.980
CUBEBUG 1 28 Sep 22:30:10 22:32:18 13° 62° (ENE) 22:34:26 437.445
ESTCUBE 1 28 Sep 22:32:02 22:35:31 22° 66° (ENE) 22:39:01 437.505/2401.250
ANTELSAT 28 Sep 22:43:45 22:47:54 38° 98° (E) 22:52:06 437.575/2403.000
M-CUBED/EXP-1 PRIME 28 Sep 22:46:34 22:48:42 14° 61° (ENE) 22:50:46 437.505
DELFI C3 28 Sep 22:48:38 22:51:33 19° 267° (W) 22:54:28 145.870
ISS 28 Sep 22:54:54 22:56:58 15° 352° (N) 22:59:01 145.825
JAS-2 28 Sep 22:57:44 23:00:11 12° 82° (E) 23:02:36 435.910
RS-15 28 Sep 23:00:02 23:10:23 33° 332° (NNW) 23:21:07 29.354- 29.394
PRISM 28 Sep 23:01:10 23:04:01 18° 295° (WNW) 23:06:51 437.425
TIGRISAT 28 Sep 23:03:49 23:08:12 60° 101° (E) 23:12:38 435.000
SPROUT 28 Sep 23:06:16 23:08:16 13° 63° (ENE) 23:10:15 437.525
HUMSAT D 28 Sep 23:11:53 23:15:03 22° 266° (W) 23:18:17 437.325/437.525
SO-50 28 Sep 23:17:02 23:21:12 33° 48° (NE) 23:25:15 436.795
AISAT 28 Sep 23:19:09 23:23:11 35° 70° (ENE) 23:27:14 437.250
UKube-1 28 Sep 23:21:30 23:24:24 18° 64° (ENE) 23:27:18 .
POPSAT HIP 1 28 Sep 23:25:14 23:27:17 13° 91° (E) 23:29:19 437.405
NANOSAT C BR1 28 Sep 23:40:01 23:43:01 19° 94° (E) 23:45:59 145.865
AUBIESAT-1 28 Sep 23:40:44 23:44:34 44° 68° (ENE) 23:48:09 437.475
UNISAT 6 28 Sep 23:44:58 23:49:11 45° 288° (WNW) 23:53:29 437.425
DX 1 28 Sep 23:50:41 23:54:52 45° 72° (ENE) 23:59:03 434.975-435.025
BEESAT 3 28 Sep 23:52:38 23:54:42 14° 110° (ESE) 23:56:47 437.485
50 SAT 28 Sep 23:57:48 00:01:26 86° 77° (ENE) 00:05:06 437.505
VELOX 1 29 Sep 00:02:10 00:06:37 85° 256° (WSW) 00:11:06 145.980
CUBEBUG 1 29 Sep 00:03:41 00:08:03 63° 259° (W) 00:12:26 437.445
QB50P2 29 Sep 00:03:44 00:07:42 39° 98° (E) 00:11:40 145.880/145.840
POLYITAN 1 29 Sep 00:05:55 00:09:53 39° 98° (E) 00:13:51 437.675
ESTCUBE 1 29 Sep 00:07:54 00:12:05 37° 262° (W) 00:16:19 437.505/2401.250
M-CUBED/EXP-1 PRIME 29 Sep 00:18:54 00:22:56 50° 254° (WSW) 00:26:40 437.505
ANTELSAT 29 Sep 00:21:05 00:24:21 21° 294° (WNW) 00:27:41 437.575/2403.000
TISAT 1 29 Sep 00:21:49 00:24:34 17° 65° (ENE) 00:27:20 437.305
ISS 29 Sep 00:32:08 00:34:24 17° 12° (NNE) 00:36:40 145.825
Cosmos 2491 29 Sep 00:36:21 00:42:54 22° 63° (ENE) 00:49:24 435.465 / 435.565
JAS-2 29 Sep 00:38:44 00:46:36 67° 101° (E) 00:54:01 435.910
SPROUT 29 Sep 00:39:29 00:43:42 60° 259° (W) 00:47:55 437.525
BUGSAT 1 29 Sep 00:40:19 00:43:57 32° 97° (E) 00:47:34 437.445
DUCHIFAT 1 29 Sep 00:42:09 00:46:21 89° 103° (ESE) 00:50:33 145.980
TIGRISAT 29 Sep 00:42:09 00:44:25 14° 297° (WNW) 00:46:42 435.000
QB50P1 29 Sep 00:45:32 00:49:45 73° 284° (WNW) 00:53:56 145.935-145.965
BEESAT 2 29 Sep 00:48:52 00:52:16 28° 115° (ESE) 00:55:43 435.950
UKube-1 29 Sep 00:55:58 01:00:06 43° 261° (W) 01:04:15 .
AISAT 29 Sep 00:56:16 00:59:43 22° 266° (W) 01:03:11 437.250
SO-50 29 Sep 00:57:38 01:01:34 29° 246° (WSW) 01:05:26 436.795
POPSAT HIP 1 29 Sep 00:59:16 01:03:22 52° 287° (WNW) 01:07:27 437.405
ITUPSAT 1 29 Sep 01:12:56 01:15:24 14° 61° (ENE) 01:17:53 437.325
NANOSAT C BR1 29 Sep 01:14:59 01:18:50 36° 289° (WNW) 01:22:42 145.865
AUBIESAT-1 29 Sep 01:16:57 01:19:08 14° 261° (W) 01:21:15 437.475
RS-15 29 Sep 01:18:55 01:28:16 24° 7° (N) 01:37:42 29.354- 29.394
SWISSCUBE 29 Sep 01:24:12 01:27:41 20° 64° (ENE) 01:31:10 437.505
BEESAT 3 29 Sep 01:28:07 01:31:55 50° 306° (NW) 01:35:47 437.485
DX 1 29 Sep 01:28:31 01:31:16 16° 267° (W) 01:34:02 434.975-435.025
BEESAT 29 Sep 01:36:41 01:40:28 24° 66° (ENE) 01:44:16 436.000
YUBILEINY 29 Sep 01:37:48 01:43:37 20° 78° (ENE) 01:49:25 435.215
QB50P2 29 Sep 01:40:17 01:43:13 18° 294° (WNW) 01:46:08 145.880/145.840
Oscar 19 29 Sep 01:41:54 01:46:27 31° 96° (E) 01:50:57 437.125/150
POLYITAN 1 29 Sep 01:42:29 01:45:24 18° 294° (WNW) 01:48:20 437.675
TISAT 1 29 Sep 01:55:56 01:59:53 41° 261° (W) 02:03:52 437.305
ISS 29 Sep 02:08:12 02:11:27 55° 31° (NNE) 02:14:41 145.825
BUGSAT 1 29 Sep 02:16:10 02:19:07 20° 293° (WNW) 02:22:05 437.445
JAS-2 29 Sep 02:24:30 02:30:56 29° 300° (WNW) 02:37:11 435.910
BEESAT 2 29 Sep 02:26:40 02:30:03 27° 312° (NW) 02:33:29 435.950
Cosmos 2491 29 Sep 02:31:57 02:40:50 82° 264° (W) 02:49:38 435.465 / 435.565
ITAMSAT 1 29 Sep 02:39:08 02:41:42 14° 90° (E) 02:44:13 435.822/435.867
ITUPSAT 1 29 Sep 02:47:55 02:52:39 69° 257° (WSW) 02:57:26 437.325
Gurwin Techsat 1B 29 Sep 02:48:41 02:53:58 63° 102° (ESE) 02:59:14 435.225
MOZHAYETS 4 29 Sep 02:52:36 02:56:12 23° 66° (ENE) 02:59:50
SWISSCUBE 29 Sep 03:00:36 03:05:08 45° 260° (W) 03:09:44 437.505
KKS-1 29 Sep 03:09:17 03:12:44 23° 66° (ENE) 03:16:11 437.445
BEESAT 29 Sep 03:13:39 03:18:02 37° 262° (W) 03:22:28 436.000
AIST 2 29 Sep 03:21:01 03:24:53 42° 117° (ESE) 03:28:49 435.215
Oscar 19 29 Sep 03:21:10 03:25:43 32° 293° (WNW) 03:30:14 437.125/150
YUBILEINY 29 Sep 03:30:27 03:39:16 84° 278° (W) 03:48:05 435.215
RS-15 29 Sep 03:33:35 03:45:17 44° 40° (NE) 03:56:46 29.354- 29.394
Cosmos 2504 29 Sep 03:38:11 03:45:03 43° 89° (E) 03:51:44 435.465 / 435.565
STARS 29 Sep 03:39:33 03:42:58 23° 66° (ENE) 03:46:22 437.465
ISS 29 Sep 03:45:22 03:47:40 18° 228° (SW) 03:49:57 145.825
AO-7 29 Sep 03:57:35 04:05:16 40° 99° (E) 04:12:54 29.400- 29.500
CUSAT 1 29 Sep 04:07:32 04:09:34 11° 52° (NE) 04:11:33 437.405
PCSat 29 Sep 04:13:16 04:18:34 58° 115° (ESE) 04:23:53 145.827
CUBESAT XI-V 29 Sep 04:15:35 04:19:18 24° 66° (ENE) 04:23:02 437.345
ITAMSAT 1 29 Sep 04:16:27 04:21:41 74° 286° (WNW) 04:26:53 435.822/435.867
MOZHAYETS 4 29 Sep 04:28:59 04:33:10 35° 263° (W) 04:37:24
Gurwin Techsat 1B 29 Sep 04:29:53 04:33:24 18° 299° (WNW) 04:36:54 435.225
Cosmos 2491 29 Sep 04:31:29 04:36:10 16° 285° (WNW) 04:40:51 435.465 / 435.565
AIST 1 29 Sep 04:34:37 04:38:05 23° 88° (E) 04:41:32
KKS-1 29 Sep 04:45:01 04:49:06 35° 262° (W) 04:53:11 437.445
AO-85 29 Sep 04:58:21 05:01:54 26° 46° (NE) 05:05:17 145.980
AIST 2 29 Sep 05:00:22 05:03:33 21° 315° (NW) 05:06:46 435.215
STARS 29 Sep 05:15:08 05:19:07 34° 263° (W) 05:23:07 437.465
YUBILEINY 29 Sep 05:31:59 05:37:30 18° 300° (WNW) 05:43:01 435.215
Cosmos 2504 29 Sep 05:32:00 05:38:30 33° 288° (WNW) 05:44:54 435.465 / 435.565
CUSAT 1 29 Sep 05:46:03 05:53:39 55° 74° (ENE) 05:59:55 437.405
RS-15 29 Sep 05:46:23 05:58:36 68° 245° (WSW) 06:10:30 29.354- 29.394
DANDE 29 Sep 05:46:32 05:53:43 30° 66° (ENE) 06:00:30 436.750
AO-7 29 Sep 05:50:18 05:58:06 48° 297° (WNW) 06:05:54 29.400- 29.500
STRAND 1 29 Sep 05:51:36 05:54:01 14° 59° (ENE) 05:56:26 437.568
CUBESAT XI-V 29 Sep 05:52:07 05:56:27 37° 263° (W) 06:00:51 437.345
HORYU 2 29 Sep 05:55:25 05:59:49 58° 101° (E) 06:04:12 437.375
PCSat 29 Sep 05:58:00 06:02:19 24° 314° (NW) 06:06:41 145.827
ITAMSAT 1 29 Sep 05:59:43 06:00:13 10° 304° (NW) 06:00:42 435.822/435.867
LilacSat-2 29 Sep 06:04:59 06:06:46 13° 91° (E) 06:08:33 437.200
NOAA 15 29 Sep 06:05:35 06:09:30 21° 93° (E) 06:13:24 137.62
AIST 1 29 Sep 06:11:40 06:15:31 29° 285° (WNW) 06:19:22
GOMX 1 29 Sep 06:16:49 06:20:12 22° 93° (E) 06:23:27 467.674
CUTE-I 29 Sep 06:25:53 06:30:22 27° 95° (E) 06:34:50 437.470
Cubesat XI-IV 29 Sep 06:26:11 06:30:40 26° 95° (E) 06:35:07 437.490
DOVE 4 29 Sep 06:32:28 06:34:14 12° 90° (E) 06:35:59 437.250
BRITE-PL 29 Sep 06:33:44 06:38:33 86° 103° (ESE) 06:42:58 437.365/2234.400
O/OREOS (USA 219) 29 Sep 06:37:53 06:41:52 31° 104° (ESE) 06:45:54 437.305
AO-85 29 Sep 06:38:44 06:42:19 29° 246° (WSW) 06:45:43 145.980
NOAA 18 29 Sep 07:18:03 07:23:29 61° 102° (ESE) 07:28:54 137.9125
HO-68 29 Sep 07:23:50 07:28:03 16° 89° (E) 07:32:14 435.675
STRAND 1 29 Sep 07:27:23 07:32:29 81° 256° (WSW) 07:37:38 437.568
DANDE 29 Sep 07:28:47 07:37:06 66° 266° (W) 07:44:42 436.750
CANX-2 29 Sep 07:28:49 07:30:12 11° 89° (E) 07:31:34 2200.000
CUSAT 1 29 Sep 07:28:52 07:35:03 28° 276° (W) 07:40:25 437.405
HORYU 2 29 Sep 07:33:26 07:35:54 15° 297° (WNW) 07:38:21 437.375
CINEMA 3 29 Sep 07:33:29 07:35:59 15° 92° (E) 07:38:31 145.822/145.860
LilacSat-2 29 Sep 07:37:37 07:41:17 44° 287° (WNW) 07:44:57 437.200
NOAA 15 29 Sep 07:44:25 07:49:32 50° 290° (WNW) 07:54:37 137.62
AO-7 29 Sep 07:46:52 07:48:49 11° 319° (NW) 07:50:47 29.400- 29.500
GONETS M04 29 Sep 07:54:09 08:01:57 37° 85° (E) 08:09:45
GOMX 1 29 Sep 07:54:30 07:58:23 31° 291° (WNW) 08:02:05 467.674
RS-15 29 Sep 08:02:44 08:08:34 15° 266° (W) 08:14:22 29.354- 29.394
CUTE-I 29 Sep 08:05:32 08:10:30 40° 292° (WNW) 08:15:28 437.470
Cubesat XI-IV 29 Sep 08:05:51 08:10:49 40° 291° (WNW) 08:15:47 437.490
DOVE 4 29 Sep 08:08:14 08:12:18 51° 287° (WNW) 08:16:19 437.250
BEESAT 3 29 Sep 08:08:49 08:10:36 13° 40° (NE) 08:12:24 437.485
PRISM 29 Sep 08:14:39 08:18:15 29° 69° (ENE) 08:21:52 437.425
BRITE-PL 29 Sep 08:15:07 08:16:10 11° 302° (WNW) 08:17:12 437.365/2234.400
O/OREOS (USA 219) 29 Sep 08:17:21 08:21:15 27° 302° (WNW) 08:25:12 437.305
COMPASS 1 29 Sep 08:28:39 08:31:56 22° 94° (E) 08:35:11 437.405
CUBEBUG 2 29 Sep 08:30:52 08:33:54 18° 93° (E) 08:36:59 437.445
Cosmos 2499 29 Sep 08:37:08 08:44:01 54° 91° (E) 08:50:50 435.465 / 435.565
UWE-3 29 Sep 08:45:56 08:48:55 18° 93° (E) 08:51:56 435.000/436.395/437.385
SEEDS 29 Sep 08:59:16 09:03:33 72° 102° (ESE) 09:07:47 437.485
NOAA 18 29 Sep 08:59:51 09:03:39 20° 299° (WNW) 09:07:28 137.9125
CUTE 1.7 + AOD 2 29 Sep 09:00:35 09:04:53 76° 285° (WNW) 09:09:11 437.475
CANX-2 29 Sep 09:02:11 09:06:27 63° 285° (WNW) 09:10:42 2200.000
BEESAT 2 29 Sep 09:06:26 09:09:36 21° 46° (NE) 09:12:44 435.950
Oscar 11 29 Sep 09:07:10 09:10:12 18° 93° (E) 09:13:13 145.826/435.025
UNISAT 6 29 Sep 09:09:15 09:11:42 15° 64° (ENE) 09:14:09 437.425
CINEMA 3 29 Sep 09:09:22 09:13:20 43° 288° (WNW) 09:17:23 145.822/145.860
HO-68 29 Sep 09:09:25 09:16:37 88° 286° (WNW) 09:23:46 435.675
ZACube-1 29 Sep 09:11:38 09:15:00 22° 94° (E) 09:18:25 437.345
DANDE 29 Sep 09:14:55 09:18:14 13° 285° (WNW) 09:21:28 436.750
AAUSAT CUBESAT 2 29 Sep 09:17:34 09:21:44 61° 100° (E) 09:25:52 437.432
PHONESAT 2.4 29 Sep 09:34:04 09:35:25 13° 150° (SSE) 09:36:47 2401.200-2431.200
ANTELSAT 29 Sep 09:42:58 09:46:47 33° 70° (ENE) 09:50:37 437.575/2403.000
BEESAT 3 29 Sep 09:44:50 09:48:50 85° 238° (WSW) 09:52:48 437.485
GONETS M04 29 Sep 09:49:57 09:58:27 50° 285° (WNW) 10:07:02
PRISM 29 Sep 09:50:10 09:53:32 24° 265° (W) 09:56:56 437.425
TIGRISAT 29 Sep 10:02:42 10:06:49 52° 73° (ENE) 10:10:58 435.000
COMPASS 1 29 Sep 10:03:46 10:07:31 31° 290° (WNW) 10:11:14 437.405
FUNcube-1 29 Sep 10:04:06 10:08:27 76° 103° (ESE) 10:12:53 145.935
CUBEBUG 2 29 Sep 10:06:39 10:10:39 39° 288° (WNW) 10:14:46 437.445
POPSAT HIP 1 29 Sep 10:19:14 10:20:25 11° 62° (ENE) 10:21:38 437.405
UWE-3 29 Sep 10:21:27 10:25:31 41° 288° (WNW) 10:29:40 435.000/436.395/437.385
DELFI C3 29 Sep 10:24:33 10:28:29 51° 100° (E) 10:32:22 145.870
Cosmos 2499 29 Sep 10:31:42 10:37:29 26° 291° (WNW) 10:43:17 435.465 / 435.565
NANOSAT C BR1 29 Sep 10:33:03 10:35:29 15° 64° (ENE) 10:37:55 145.865
SEEDS 29 Sep 10:37:23 10:38:38 11° 298° (WNW) 10:39:53 437.485
Oscar 11 29 Sep 10:42:24 10:46:29 40° 289° (WNW) 10:50:33 145.826/435.025
BEESAT 2 29 Sep 10:43:47 10:47:33 39° 243° (WSW) 10:51:17 435.950
UNISAT 6 29 Sep 10:43:53 10:48:01 49° 260° (W) 10:52:11 437.425
ZACube-1 29 Sep 10:47:25 10:51:20 34° 289° (WNW) 10:55:20 437.345
JAS-2 29 Sep 10:51:05 10:56:48 31° 61° (ENE) 11:03:03 435.910
HUMSAT D 29 Sep 10:53:40 10:57:52 55° 100° (E) 11:02:04 437.325/437.525
AAUSAT CUBESAT 2 29 Sep 10:54:53 10:56:40 13° 297° (WNW) 10:58:28 437.432
QB50P2 29 Sep 10:56:34 11:00:15 30° 69° (ENE) 11:03:56 145.880/145.840
POLYITAN 1 29 Sep 10:58:47 11:02:26 30° 70° (ENE) 11:06:07 437.675
HO-68 29 Sep 10:58:49 11:03:21 18° 306° (NW) 11:07:53 435.675
PHONESAT 2.4 29 Sep 11:08:16 11:11:04 44° 165° (SSE) 11:13:54 2401.200-2431.200
ANTELSAT 29 Sep 11:20:22 11:23:35 21° 266° (W) 11:26:48 437.575/2403.000
PCSat 29 Sep 11:20:33 11:21:24 10° 33° (NNE) 11:22:15 145.827
BUGSAT 1 29 Sep 11:30:27 11:33:44 24° 68° (ENE) 11:36:59 437.445
DUCHIFAT 1 29 Sep 11:33:49 11:37:57 65° 75° (ENE) 11:42:05 145.980
QB50P1 29 Sep 11:37:43 11:41:55 83° 76° (ENE) 11:46:08 145.935-145.965
TIGRISAT 29 Sep 11:41:47 11:43:50 13° 269° (W) 11:45:54 435.000
AIST 2 29 Sep 11:42:03 11:45:51 32° 50° (NE) 11:49:37 435.215
FUNcube-1 29 Sep 11:42:52 11:44:06 11° 298° (WNW) 11:45:20 145.935
POPSAT HIP 1 29 Sep 11:51:26 11:55:37 70° 258° (WSW) 11:59:50 437.405
CUBEBUG 1 29 Sep 11:52:38 11:56:04 23° 94° (E) 11:59:28 437.445
VELOX 1 29 Sep 11:53:05 11:56:03 18° 93° (E) 11:58:59 145.980
ESTCUBE 1 29 Sep 11:59:48 12:04:09 44° 99° (E) 12:08:27 437.505/2401.250
DELFI C3 29 Sep 12:00:54 12:02:52 13° 296° (WNW) 12:04:49 145.870
NANOSAT C BR1 29 Sep 12:06:46 12:10:49 48° 260° (W) 12:14:53 145.865
SPROUT 29 Sep 12:25:40 12:28:59 22° 94° (E) 12:32:18 437.525
HUMSAT D 29 Sep 12:30:46 12:33:02 14° 296° (WNW) 12:35:18 437.325/437.525
QB50P2 29 Sep 12:32:44 12:36:03 22° 265° (W) 12:39:24 145.880/145.840
Gurwin Techsat 1B 29 Sep 12:33:19 12:36:01 14° 59° (ENE) 12:38:43 435.225
POLYITAN 1 29 Sep 12:34:56 12:38:15 22° 265° (W) 12:41:35 437.675
JAS-2 29 Sep 12:35:03 12:41:22 53° 262° (W) 12:48:33 435.910
UKube-1 29 Sep 12:42:55 12:46:40 28° 96° (E) 12:50:23 .
PHONESAT 2.4 29 Sep 12:44:07 12:47:03 71° 182° (S) 12:49:59 2401.200-2431.200
AISAT 29 Sep 12:44:53 12:49:16 68° 102° (ESE) 12:53:37 437.250
AUBIESAT-1 29 Sep 12:53:26 12:56:13 25° 102° (ESE) 12:59:02 437.475
50 SAT 29 Sep 12:58:34 13:02:14 80° 284° (WNW) 13:05:52 437.505
Oscar 19 29 Sep 12:58:40 13:03:37 46° 70° (ENE) 13:08:35 437.125/150
PCSat 29 Sep 13:00:55 13:06:11 48° 55° (NE) 13:11:24 145.827
BUGSAT 1 29 Sep 13:05:29 13:08:59 27° 264° (W) 13:12:30 437.445
DUCHIFAT 1 29 Sep 13:13:22 13:14:03 10° 270° (W) 13:14:44 145.980
